COSMOS 1959

Satellite information

Favourite Embed

Satellite Type and Status

PAYLOADIN ORBIT

Key statistics

Satellite COSMOS 1959 at a glance.

Uptime

13609

Days in orbit

Revolutions

≈ 13.8

Per day

Orbit

LEO

Low Earth Orbit

Inclination

82.9

Latest

Satellite identification and parameters

Extended collection of information and parameters for COSMOS 1959.

Object identification

Identified? True

Debris? False

Object name: COSMOS 1959

International designator: 1988-062A

Object number (NORAD): 19324

Object ID (CCSDS): 19324

Country: COMMONWEALTH OF INDEPENDENT STATES (CIS)

Current information (Y/N): Y

RCS size: LARGE

Orbital parameters

Period: 104.626 minutes

Inclination: 82.947 deg

SMA: 7355.081 km

Apoapsis: 1002.961 km

Periapsis: 950.932 km

RAAN: 300.3427 deg

Eccentricy: 0.00353695

Argument of periapsis: 69.9476 deg

Mean anomaly: 319.4226 deg

Mean motion: 13.76326766 rev/day

Mean motion (dot): 0.00000097 rev/day2

B* drag term: 0.000082768517 1/REarth

Two-line elements (TLE)

Creation date: Oct. 21, 2025, 3:26 a.m.

Reference frame: TEME

Reference center: EARTH

Epoch: Oct. 20, 2025, 11:59 p.m. UTC

TLE line 0: 0 COSMOS 1959

TLE line 1: 1 19324U 88062A 25293.99949397 .00000097 00000-0 82769-4 0 9995

TLE line 2: 2 19324 82.9470 300.3427 0035370 69.9476 319.4226 13.76326766870806

Live tracking on map

Real-time ground track for satellite COSMOS 1959.

In-orbit conjunctions

A list of the most updated potential collisions computed for object COSMOS 1959.

Target Orbit TCA Probability of collision Miss distance Type
THORAD AGENA D DEB SSO 2024-12-03 16:18:48 0.0006847522 295.0 (m) DEBRIS

Associated space launch

Navigation satellite providing location information for the Tsiklon-B navigation system

COSMOS 1959 was lifted into orbit during the mission ‘Kosmos-3M | Parus 63’, on board a Kosmos-3M space rocket.

The launch took place on July 18, 1988, 10:28 p.m. from 133/3 (133L).

For more information about the launch, click the button.

Launch to space Kosmos-3M | Parus 63
Kosmos-3M | Parus 63

Agency: N/A

Status: Launch Successful

Launch date: July 18, 1988, 10:28 p.m. UTC

Rocket: Kosmos-3M

Launch pad: 133/3 (133L)

Location: Plesetsk Cosmodrome, Russian Federation

...

Latest news about this satellite

There are no fresh news available about this satellite. Check back as we update our databases every day.


Newsletter sign-up

Weekly statistics, charts and insights to help you stay on top of the space industry.